sat.trackr.live / text

‹ back to catalog

STARLINK-36057

NORAD 66884 · 2025-283G

PAYLOAD ACTIVE UNKNOWN

§ Identity

Operator
Country
US
Launch date
2025-12-04
Launch site
AFWTR
Launch vehicle
Mass (kg)
RCS (m²)

Purposes: comms

External: N2YO · Heavens-Above · Gunter

§ Orbital elements

Epoch: 2026-05-25T00:00:02.000160Z

Period
93.85 min
Inclination
53.1597°
Eccentricity
0.0000801
Mean motion
15.34378020 rev/d
Perigee alt
462.2 km
Apogee alt
463.3 km
Semi-major
6,840.9 km
B*
3.9572e-4
RAAN
29.7742°
Arg perigee
95.6776°
Mean anomaly
18.0300°
Rev number
578

§ Raw data

STARLINK-360571 66884U 25283G   26145.00002315  .00013008  00000+0  39572-3 0  99912 66884  53.1597  29.7742 0000801  95.6776  18.0300 15.34378020  5789

JSON: /api/v1/satellites/66884 · /tle

For live sub-satellite position, see the globe view (requires WebGL).

§ Visibility from observer

Set your observer location to see the next 7 days of passes ≥ 10°. The values pass through the URL so the page stays shareable.

No JS? Fill the form by hand. The geolocation button needs JavaScript.